Weather History for Maxwell AFB, AL

Change the Weather History Date:

Monday, November 25, 2013

  Actual Average Record
Temperature  
Mean Temperature 45 °F -  
Max Temperature 53 °F 65 °F 78 °F (2010)
Min Temperature 37 °F 43 °F 28 °F (2012)
Degree Days  
Heating Degree Days 20    
Moisture  
Dew Point 31 °F    
Average Humidity 54    
Maximum Humidity 87    
Minimum Humidity 35    
Precipitation  
Precipitation 0.00 in - - ()
Sea Level Pressure  
Sea Level Pressure 30.21 in    
Wind  
Wind Speed 10 mph (East)    
Max Wind Speed 13 mph    
Max Gust Speed 21 mph    
Visibility 10 miles    
Events Rain    
Averages and records for this station are not official NWS values.
T = Trace of Precipitation, MM = Missing Value Source: NWS Daily Summary

Daily Weather History Graph

Daily Weather History Graph

Search for Another Location

Airport:

Trip Planner

Search our weather history database for the weather conditions in past years. The results will help you decide how hot, cold, wet, or windy it might be!

Date:

Astronomy

Nov. 25, 2013 Rise Set
Actual Time 6:24 AM CST 4:40 PM CST
Civil Twilight 5:57 AM CST 5:07 PM CST
Nautical Twilight 5:27 AM CST 5:37 PM CST
Astronomical Twilight 4:57 AM CST 6:06 PM CST
Moon 11:49 PM CST (11/25) 11:53 AM CST (11/25)
Length of Visible Light 11h 09m
Length of Day
10h 16m
Waning Gibbous, 51% of the Moon is Illuminated
Nov 25
Waning Gibbous
Nov 25
Last Quarter
Dec 2
New
Dec 9
First Quarter
Dec 17
Full

Hourly Weather History & Observations

Time (CST) Temp. Windchill Dew Point Humidity Pressure Visibility Wind Dir Wind Speed Gust Speed Precip Events Conditions
12:58 AM 38.7 °F 34.3 °F 21.2 °F 50% 30.39 in 10.0 mi ENE 5.8 mph - N/A   Clear
1:58 AM 39.4 °F 33.2 °F 21.0 °F 48% 30.39 in 10.0 mi East 9.2 mph - N/A   Clear
2:58 AM 39.0 °F 32.3 °F 20.8 °F 48% 30.38 in 10.0 mi ENE 10.4 mph - N/A   Clear
3:58 AM 38.5 °F 31.6 °F 20.5 °F 48% 30.37 in 10.0 mi East 10.4 mph - N/A   Scattered Clouds
4:58 AM 38.1 °F 31.7 °F 19.8 °F 48% 30.38 in 10.0 mi East 9.2 mph - N/A   Scattered Clouds
5:58 AM 37.6 °F 29.6 °F 17.8 °F 45% 30.38 in 10.0 mi East 12.7 mph - N/A   Partly Cloudy
6:58 AM 37.9 °F 30.9 °F 16.5 °F 42% 30.40 in 10.0 mi East 10.4 mph - N/A   Mostly Cloudy
7:58 AM 39.9 °F 33.4 °F 14.9 °F 36% 30.39 in 10.0 mi East 10.4 mph - N/A   Overcast
8:58 AM 41.7 °F 34.8 °F 16.0 °F 35% 30.39 in 10.0 mi East 12.7 mph - N/A   Overcast
9:58 AM 44.1 °F 38.1 °F 19.6 °F 38% 30.38 in 10.0 mi East 11.5 mph - N/A   Overcast
10:58 AM 46.2 °F 40.5 °F 22.5 °F 39% 30.34 in 10.0 mi East 12.7 mph - N/A   Overcast
11:58 AM 49.5 °F - 25.7 °F 40% 30.29 in 10.0 mi East 9.2 mph - N/A   Mostly Cloudy
12:58 PM 53.6 °F - 28.4 °F 38% 30.28 in 10.0 mi East 8.1 mph - N/A   Overcast
1:58 PM 51.8 °F - 30.2 °F 44% 30.28 in 10.0 mi East 8.1 mph - N/A   Overcast
2:58 PM 53.8 °F - 32.5 °F 45% 30.21 in 10.0 mi East 12.7 mph - N/A   Overcast
3:58 PM 53.8 °F - 34.2 °F 47% 30.21 in 10.0 mi East 10.4 mph - N/A   Overcast
4:58 PM 53.4 °F - 34.5 °F 49% 30.19 in 10.0 mi East 10.4 mph - N/A   Overcast
5:58 PM 53.4 °F - 35.2 °F 50% 30.17 in 10.0 mi East 10.4 mph - -   Overcast
6:58 PM 53.4 °F - 36.3 °F 52% 30.15 in 10.0 mi East 11.5 mph - N/A   Overcast
7:58 PM 53.1 °F - 36.5 °F 53% 30.15 in 10.0 mi ENE 8.1 mph - N/A   Overcast
8:58 PM 53.2 °F - 37.2 °F 55% 30.11 in 10.0 mi East 10.4 mph - -   Overcast
9:08 PM 53.6 °F - 37.4 °F 54% 30.09 in 10.0 mi East 12.7 mph - N/A   Overcast
9:23 PM 53.6 °F - 37.4 °F 54% 30.09 in 10.0 mi East 9.2 mph - N/A   Overcast
9:33 PM 53.6 °F - 37.4 °F 54% 30.08 in 10.0 mi East 11.5 mph 20.7 mph N/A   Overcast
9:58 PM 53.4 °F - 37.9 °F 56% 30.07 in 10.0 mi East 10.4 mph - N/A   Overcast
10:03 PM 53.6 °F - 37.4 °F 54% 30.06 in 10.0 mi East 11.5 mph - N/A   Overcast
10:15 PM 53.6 °F - 39.2 °F 58% 30.06 in 10.0 mi East 11.5 mph - N/A   Light Drizzle
10:58 PM 51.1 °F - 43.3 °F 75% 30.05 in 9.0 mi East 6.9 mph - - Rain Light Rain
11:18 PM 50.0 °F - 44.6 °F 82% 30.03 in 10.0 mi East 8.1 mph - N/A Rain Light Rain
11:33 PM 50.0 °F - 44.6 °F 82% 30.03 in 10.0 mi ENE 8.1 mph - N/A   Overcast
11:35 PM 50.0 °F - 44.6 °F 82% 30.03 in 10.0 mi ENE 8.1 mph - N/A Rain Light Rain
11:50 PM 50.0 °F - 46.4 °F 87% 30.01 in 10.0 mi East 8.1 mph - N/A Rain Light Rain
11:58 PM 50.0 °F - 46.4 °F 87% 30.02 in 10.0 mi East 8.1 mph - - Rain Light Rain